Location: Sungai Bunut
(2.6333°N, 113.7333°E)
Time: 02:45:23
(UTC+00:00)

S-56A Canister/Altair - Pass Details

Date: 07 December 2023
Orbit: 640 x 2488 km, 38.9° (Epoch: 24 February)

Event Time Altitude Azimuth Distance (km) Brightness Sun altitude
Rises 12:53:53 0° 285° (WNW) 4,267 11.9 -37.1°
Reaches altitude 10° 12:56:47 10° 275° (W) 3,543 11.5 -37.7°
Maximum altitude 13:05:02 33° 214° (SW) 2,746 10.6 -39.5°
Drops below altitude 10° 13:16:17 10° 156° (SSE) 4,836 11.6 -42.0°
Sets 13:21:07 0° 147° (SSE) 6,020 12.1 -43.1°
